IRIDIUM 153 (43078 NORAD) Tracking and Keplerian Element Data

This shows tracking and keplerian element data for the satellite.

Feedback or suggestion? Click here.




ElementValue
Catalog43078
NameIRIDIUM 153
Epoch Orbit33935
Epoch Day160.16632965
Epoch Year2024
RAAN239.2817
Inclination86.3988
Eccentricity0.0001957
Argument of Perigee86.2491
Mean Anonmoly273.8928
Mean Motion14.34217645
Decay Rate4.03E-06
L11 43078U 17083J 24160.16632965 .00000403 00000+0 13682-3 0 9991
L22 43078 86.3988 239.2817 0001957 86.2491 273.8928 14.34217645339359



Live tracking and technical data element details for IRIDIUM 153 (NORAD 43078). IRIDIUM 153 can be tracked NOW for your location showing map with azimuth and elevation plus other details from your city location.







IsCatalogInMostPopularTable: catalog: 43078, numindb: 692
Update: records affected: 1



GetName: 43078 IRIDIUM 153

Hit Count: updated at: Mon, 17 Jun 2024 23:13:41 GMT